contact:dominique.lefevre@mio.osupytheas.fr, maurice.libes@osupytheas.fr, didier.mallarino@osupytheas.fr
Project:EMSO http://www.emso-fr.org/EMSO-France
Depth: 2436.0 m
Title:EMSO Ligure Ouest : Data MII capteur MICROCAT
DateTime_Computer,Latitude,Longitude,Temperature,Conductivity,Pressure,DateTime_Instrument
DateTime_Computer,Latitude,Longitude,degC,S m-1,dbar,DateTime_Instrument
2019-09-08T00:01:39Z,42.805,6.029,13.2961,4.59958,2469.923,2019-9-08T02:02:01Z
2019-09-08T00:04:42Z,42.805,6.029,13.2961,4.59972,2469.96,2019-9-08T02:05:04Z
2019-09-08T00:07:45Z,42.805,6.029,13.2962,4.59963,2469.914,2019-9-08T02:08:07Z
2019-09-08T00:10:48Z,42.805,6.029,13.2954,4.59961,2469.9,2019-9-08T02:11:11Z
2019-09-08T00:13:51Z,42.805,6.029,13.2959,4.59964,2469.923,2019-9-08T02:14:14Z
2019-09-08T00:16:55Z,42.805,6.029,13.2960,4.59966,2469.937,2019-9-08T02:17:17Z
2019-09-08T00:19:58Z,42.805,6.029,13.2967,4.59967,2469.914,2019-9-08T02:20:20Z
2019-09-08T00:23:01Z,42.805,6.029,13.2961,4.59971,2469.923,2019-9-08T02:23:23Z
2019-09-08T00:26:04Z,42.805,6.029,13.2960,4.59966,2469.923,2019-9-08T02:26:27Z
2019-09-08T00:29:07Z,42.805,6.029,13.2960,4.59966,2469.923,2019-9-08T02:29:30Z
2019-09-08T00:32:11Z,42.805,6.029,13.2967,4.59972,2469.937,2019-9-08T02:32:33Z
2019-09-08T00:35:14Z,42.805,6.029,13.2964,4.59972,2469.923,2019-9-08T02:35:36Z
2019-09-08T00:38:17Z,42.805,6.029,13.2968,4.59971,2469.923,2019-9-08T02:38:40Z
2019-09-08T00:41:20Z,42.805,6.029,13.2966,4.59965,2469.9,2019-9-08T02:41:43Z
2019-09-08T00:44:23Z,42.805,6.029,13.2965,4.59964,2469.89,2019-9-08T02:44:46Z
2019-09-08T00:47:27Z,42.805,6.029,13.2965,4.59974,2469.947,2019-9-08T02:47:49Z
2019-09-08T00:50:30Z,42.805,6.029,13.2959,4.59970,2469.9,2019-9-08T02:50:52Z
2019-09-08T00:53:33Z,42.805,6.029,13.2961,4.59964,2469.89,2019-9-08T02:53:56Z
2019-09-08T00:56:36Z,42.805,6.029,13.2962,4.59968,2469.914,2019-9-08T02:56:59Z
2019-09-08T00:59:40Z,42.805,6.029,13.2958,4.59964,2469.937,2019-9-08T03:00:02Z
2019-09-08T01:02:43Z,42.805,6.029,13.2965,4.59966,2469.947,2019-9-08T03:03:05Z
2019-09-08T01:05:46Z,42.805,6.029,13.2962,4.59964,2469.937,2019-9-08T03:06:08Z
2019-09-08T01:08:49Z,42.805,6.029,13.2964,4.59970,2469.914,2019-9-08T03:09:12Z
2019-09-08T01:11:52Z,42.805,6.029,13.2961,4.59968,2469.923,2019-9-08T03:12:15Z
2019-09-08T01:14:56Z,42.805,6.029,13.2960,4.59968,2469.937,2019-9-08T03:15:18Z
2019-09-08T01:17:59Z,42.805,6.029,13.2961,4.59965,2469.923,2019-9-08T03:18:21Z
2019-09-08T01:21:02Z,42.805,6.029,13.2961,4.59971,2469.909,2019-9-08T03:21:24Z
2019-09-08T01:24:05Z,42.805,6.029,13.2960,4.59966,2469.914,2019-9-08T03:24:28Z
2019-09-08T01:27:08Z,42.805,6.029,13.2960,4.59958,2469.937,2019-9-08T03:27:31Z
2019-09-08T01:30:12Z,42.805,6.029,13.2958,4.59961,2469.947,2019-9-08T03:30:34Z
2019-09-08T01:33:15Z,42.805,6.029,13.2958,4.59963,2469.923,2019-9-08T03:33:37Z
2019-09-08T01:36:18Z,42.805,6.029,13.2964,4.59968,2469.923,2019-9-08T03:36:40Z
2019-09-08T01:39:21Z,42.805,6.029,13.2962,4.59970,2469.923,2019-9-08T03:39:44Z
2019-09-08T01:42:24Z,42.805,6.029,13.2963,4.59968,2469.937,2019-9-08T03:42:47Z
2019-09-08T01:45:28Z,42.805,6.029,13.2964,4.59962,2469.947,2019-9-08T03:45:50Z
2019-09-08T01:48:31Z,42.805,6.029,13.2961,4.59968,2469.937,2019-9-08T03:48:53Z
2019-09-08T01:51:34Z,42.805,6.029,13.2959,4.59965,2469.937,2019-9-08T03:51:57Z
2019-09-08T01:54:37Z,42.805,6.029,13.2961,4.59960,2469.923,2019-9-08T03:55:00Z
2019-09-08T01:57:40Z,42.805,6.029,13.2958,4.59967,2469.923,2019-9-08T03:58:03Z
2019-09-08T02:00:44Z,42.805,6.029,13.2959,4.59964,2469.937,2019-9-08T04:01:06Z
2019-09-08T02:03:47Z,42.805,6.029,13.2959,4.59968,2469.937,2019-9-08T04:04:09Z
2019-09-08T02:06:50Z,42.805,6.029,13.2964,4.59968,2469.947,2019-9-08T04:07:12Z
2019-09-08T02:09:53Z,42.805,6.029,13.2961,4.59963,2469.923,2019-9-08T04:10:16Z
2019-09-08T02:12:56Z,42.805,6.029,13.2958,4.59962,2469.937,2019-9-08T04:13:19Z
2019-09-08T02:16:00Z,42.805,6.029,13.2965,4.59966,2469.96,2019-9-08T04:16:22Z
2019-09-08T02:19:03Z,42.805,6.029,13.2963,4.59973,2469.9,2019-9-08T04:19:25Z
2019-09-08T02:22:06Z,42.805,6.029,13.2963,4.59961,2469.937,2019-9-08T04:22:28Z
2019-09-08T02:25:09Z,42.805,6.029,13.2960,4.59964,2469.937,2019-9-08T04:25:32Z
2019-09-08T02:28:13Z,42.805,6.029,13.2961,4.59967,2469.923,2019-9-08T04:28:35Z
2019-09-08T02:31:16Z,42.805,6.029,13.2959,4.59960,2469.9,2019-9-08T04:31:38Z
2019-09-08T02:34:19Z,42.805,6.029,13.2961,4.59964,2469.923,2019-9-08T04:34:42Z
2019-09-08T02:37:22Z,42.805,6.029,13.2963,4.59970,2469.923,2019-9-08T04:37:45Z
2019-09-08T02:40:25Z,42.805,6.029,13.2961,4.59962,2469.9,2019-9-08T04:40:48Z
2019-09-08T02:43:29Z,42.805,6.029,13.2961,4.59966,2469.914,2019-9-08T04:43:51Z
2019-09-08T02:46:32Z,42.805,6.029,13.2960,4.59964,2469.886,2019-9-08T04:46:54Z
2019-09-08T02:49:35Z,42.805,6.029,13.2964,4.59971,2469.937,2019-9-08T04:49:58Z
2019-09-08T02:52:38Z,42.805,6.029,13.2960,4.59966,2469.9,2019-9-08T04:53:01Z
2019-09-08T02:55:41Z,42.805,6.029,13.2958,4.59963,2469.923,2019-9-08T04:56:04Z
2019-09-08T02:58:45Z,42.805,6.029,13.2961,4.59968,2469.923,2019-9-08T04:59:07Z
2019-09-08T03:01:48Z,42.805,6.029,13.2957,4.59971,2469.947,2019-9-08T05:02:10Z
2019-09-08T03:04:51Z,42.805,6.029,13.2959,4.59963,2469.937,2019-9-08T05:05:14Z
2019-09-08T03:07:54Z,42.805,6.029,13.2959,4.59968,2469.923,2019-9-08T05:08:17Z
2019-09-08T03:10:57Z,42.805,6.029,13.2958,4.59964,2469.923,2019-9-08T05:11:20Z
2019-09-08T03:14:01Z,42.805,6.029,13.2964,4.59966,2469.937,2019-9-08T05:14:23Z
2019-09-08T03:17:04Z,42.805,6.029,13.2963,4.59970,2469.937,2019-9-08T05:17:26Z
2019-09-08T03:20:07Z,42.805,6.029,13.2962,4.59971,2469.937,2019-9-08T05:20:29Z
2019-09-08T03:23:10Z,42.805,6.029,13.2955,4.59960,2469.937,2019-9-08T05:23:33Z
2019-09-08T03:26:13Z,42.805,6.029,13.2958,4.59970,2469.9,2019-9-08T05:26:36Z
2019-09-08T03:29:17Z,42.805,6.029,13.2960,4.59965,2469.923,2019-9-08T05:29:39Z
2019-09-08T03:32:20Z,42.805,6.029,13.2959,4.59969,2469.947,2019-9-08T05:32:42Z
2019-09-08T03:35:23Z,42.805,6.029,13.2963,4.59962,2469.923,2019-9-08T05:35:45Z
2019-09-08T03:38:26Z,42.805,6.029,13.2964,4.59963,2469.923,2019-9-08T05:38:49Z
2019-09-08T03:41:29Z,42.805,6.029,13.2962,4.59971,2469.923,2019-9-08T05:41:52Z
2019-09-08T03:44:32Z,42.805,6.029,13.2961,4.59967,2469.97,2019-9-08T05:44:55Z
2019-09-08T03:47:36Z,42.805,6.029,13.2964,4.59964,2469.937,2019-9-08T05:47:58Z
2019-09-08T03:50:39Z,42.805,6.029,13.2967,4.59965,2469.923,2019-9-08T05:51:01Z
2019-09-08T03:53:42Z,42.805,6.029,13.2959,4.59964,2469.947,2019-9-08T05:54:05Z
2019-09-08T03:56:45Z,42.805,6.029,13.2961,4.59966,2469.923,2019-9-08T05:57:08Z
2019-09-08T03:59:48Z,42.805,6.029,13.2958,4.59967,2469.923,2019-9-08T06:00:11Z
2019-09-08T04:02:52Z,42.805,6.029,13.2959,4.59964,2469.914,2019-9-08T06:03:14Z
2019-09-08T04:05:55Z,42.805,6.029,13.2962,4.59964,2469.923,2019-9-08T06:06:17Z
2019-09-08T04:08:58Z,42.805,6.029,13.2961,4.59961,2469.909,2019-9-08T06:09:20Z
2019-09-08T04:12:01Z,42.805,6.029,13.2961,4.59966,2469.947,2019-9-08T06:12:24Z
2019-09-08T04:15:04Z,42.805,6.029,13.2961,4.59965,2469.923,2019-9-08T06:15:27Z
2019-09-08T04:18:08Z,42.805,6.029,13.2962,4.59966,2469.937,2019-9-08T06:18:30Z
2019-09-08T04:21:11Z,42.805,6.029,13.2961,4.59966,2469.937,2019-9-08T06:21:33Z
2019-09-08T04:24:14Z,42.805,6.029,13.2963,4.59971,2469.923,2019-9-08T06:24:36Z
2019-09-08T04:27:17Z,42.805,6.029,13.2966,4.59965,2469.96,2019-9-08T06:27:40Z
2019-09-08T04:30:20Z,42.805,6.029,13.2963,4.59969,2469.923,2019-9-08T06:30:43Z
2019-09-08T04:33:24Z,42.805,6.029,13.2963,4.59966,2469.914,2019-9-08T06:33:46Z
2019-09-08T04:36:27Z,42.805,6.029,13.2961,4.59966,2469.923,2019-9-08T06:36:49Z
2019-09-08T04:39:30Z,42.805,6.029,13.2964,4.59968,2469.914,2019-9-08T06:39:53Z
2019-09-08T04:42:33Z,42.805,6.029,13.2961,4.59973,2469.914,2019-9-08T06:42:56Z
2019-09-08T04:45:36Z,42.805,6.029,13.2967,4.59967,2469.923,2019-9-08T06:45:59Z
2019-09-08T04:48:40Z,42.805,6.029,13.2962,4.59968,2469.923,2019-9-08T06:49:02Z
2019-09-08T04:51:43Z,42.805,6.029,13.2966,4.59968,2469.909,2019-9-08T06:52:05Z
2019-09-08T04:54:46Z,42.805,6.029,13.2964,4.59971,2469.937,2019-9-08T06:55:09Z
2019-09-08T04:57:49Z,42.805,6.029,13.2961,4.59965,2469.96,2019-9-08T06:58:12Z
2019-09-08T05:00:52Z,42.805,6.029,13.2958,4.59962,2469.914,2019-9-08T07:01:15Z
2019-09-08T05:03:56Z,42.805,6.029,13.2958,4.59965,2469.937,2019-9-08T07:04:18Z
2019-09-08T05:06:59Z,42.805,6.029,13.2961,4.59966,2469.914,2019-9-08T07:07:21Z
2019-09-08T05:10:02Z,42.805,6.029,13.2964,4.59968,2469.9,2019-9-08T07:10:25Z
2019-09-08T05:13:05Z,42.805,6.029,13.2967,4.59966,2469.923,2019-9-08T07:13:28Z
2019-09-08T05:16:09Z,42.805,6.029,13.2964,4.59966,2469.9,2019-9-08T07:16:31Z
2019-09-08T05:19:12Z,42.805,6.029,13.2965,4.59963,2469.914,2019-9-08T07:19:34Z
2019-09-08T05:22:15Z,42.805,6.029,13.2964,4.59966,2469.9,2019-9-08T07:22:38Z
2019-09-08T05:25:18Z,42.805,6.029,13.2961,4.59965,2469.914,2019-9-08T07:25:41Z
2019-09-08T05:28:21Z,42.805,6.029,13.2963,4.59969,2469.9,2019-9-08T07:28:44Z
2019-09-08T05:31:25Z,42.805,6.029,13.2965,4.59968,2469.9,2019-9-08T07:31:47Z
2019-09-08T05:34:28Z,42.805,6.029,13.2966,4.59966,2469.914,2019-9-08T07:34:50Z
2019-09-08T05:37:31Z,42.805,6.029,13.2961,4.59965,2469.9,2019-9-08T07:37:53Z
2019-09-08T05:40:34Z,42.805,6.029,13.2963,4.59971,2469.923,2019-9-08T07:40:57Z
2019-09-08T05:43:37Z,42.805,6.029,13.2970,4.59975,2469.914,2019-9-08T07:44:00Z
2019-09-08T05:46:41Z,42.805,6.029,13.2963,4.59971,2469.9,2019-9-08T07:47:03Z
2019-09-08T05:49:44Z,42.805,6.029,13.2966,4.59969,2469.89,2019-9-08T07:50:06Z
2019-09-08T05:52:47Z,42.805,6.029,13.2968,4.59971,2469.914,2019-9-08T07:53:10Z
2019-09-08T05:55:50Z,42.805,6.029,13.2964,4.59968,2469.9,2019-9-08T07:56:13Z
2019-09-08T05:58:53Z,42.805,6.029,13.2969,4.59968,2469.937,2019-9-08T07:59:16Z
2019-09-08T06:01:57Z,42.805,6.029,13.2963,4.59964,2469.876,2019-9-08T08:02:19Z
2019-09-08T06:05:00Z,42.805,6.029,13.2963,4.59968,2469.937,2019-9-08T08:05:22Z
2019-09-08T06:08:03Z,42.805,6.029,13.2963,4.59966,2469.9,2019-9-08T08:08:26Z
2019-09-08T06:11:06Z,42.805,6.029,13.2964,4.59957,2469.9,2019-9-08T08:11:29Z
2019-09-08T06:14:09Z,42.805,6.029,13.2967,4.59975,2469.89,2019-9-08T08:14:32Z
2019-09-08T06:17:13Z,42.805,6.029,13.2967,4.59963,2469.89,2019-9-08T08:17:35Z
2019-09-08T06:20:16Z,42.805,6.029,13.2972,4.59972,2469.876,2019-9-08T08:20:38Z
2019-09-08T06:23:19Z,42.805,6.029,13.2964,4.59968,2469.9,2019-9-08T08:23:42Z
2019-09-08T06:26:22Z,42.805,6.029,13.2963,4.59964,2469.937,2019-9-08T08:26:45Z
2019-09-08T06:29:25Z,42.805,6.029,13.2967,4.59963,2469.914,2019-9-08T08:29:48Z
2019-09-08T06:32:29Z,42.805,6.029,13.2964,4.59967,2469.89,2019-9-08T08:32:51Z
2019-09-08T06:35:32Z,42.805,6.029,13.2961,4.59961,2469.9,2019-9-08T08:35:54Z
2019-09-08T06:38:35Z,42.805,6.029,13.2961,4.59963,2469.914,2019-9-08T08:38:58Z
2019-09-08T06:41:38Z,42.805,6.029,13.2967,4.59969,2469.853,2019-9-08T08:42:01Z
2019-09-08T06:44:41Z,42.805,6.029,13.2965,4.59976,2469.89,2019-9-08T08:45:04Z
2019-09-08T06:47:45Z,42.805,6.029,13.2962,4.59961,2469.9,2019-9-08T08:48:07Z
2019-09-08T06:50:48Z,42.805,6.029,13.2964,4.59968,2469.9,2019-9-08T08:51:10Z
2019-09-08T06:53:51Z,42.805,6.029,13.2963,4.59963,2469.876,2019-9-08T08:54:13Z
2019-09-08T06:56:54Z,42.805,6.029,13.2968,4.59968,2469.876,2019-9-08T08:57:17Z
2019-09-08T06:59:57Z,42.805,6.029,13.2967,4.59968,2469.914,2019-9-08T09:00:20Z
2019-09-08T07:03:00Z,42.805,6.029,13.2968,4.59968,2469.9,2019-9-08T09:03:23Z
2019-09-08T07:06:04Z,42.805,6.029,13.2968,4.59971,2469.937,2019-9-08T09:06:26Z
2019-09-08T07:09:07Z,42.805,6.029,13.2962,4.59968,2469.876,2019-9-08T09:09:29Z
2019-09-08T07:12:10Z,42.805,6.029,13.2966,4.59970,2469.89,2019-9-08T09:12:33Z
2019-09-08T07:15:13Z,42.805,6.029,13.2962,4.59966,2469.89,2019-9-08T09:15:36Z
2019-09-08T07:18:16Z,42.805,6.029,13.2971,4.59968,2469.876,2019-9-08T09:18:39Z
2019-09-08T07:21:20Z,42.805,6.029,13.2964,4.59966,2469.863,2019-9-08T09:21:42Z
2019-09-08T07:24:23Z,42.805,6.029,13.2966,4.59971,2469.89,2019-9-08T09:24:45Z
2019-09-08T07:27:26Z,42.805,6.029,13.2964,4.59968,2469.89,2019-9-08T09:27:49Z
2019-09-08T07:30:29Z,42.805,6.029,13.2963,4.59968,2469.876,2019-9-08T09:30:52Z
2019-09-08T07:33:33Z,42.805,6.029,13.2965,4.59967,2469.867,2019-9-08T09:33:55Z
2019-09-08T07:36:36Z,42.805,6.029,13.2961,4.59968,2469.876,2019-9-08T09:36:58Z
2019-09-08T07:39:39Z,42.805,6.029,13.2963,4.59961,2469.914,2019-9-08T09:40:01Z
2019-09-08T07:42:42Z,42.805,6.029,13.2967,4.59966,2469.876,2019-9-08T09:43:05Z
2019-09-08T07:45:45Z,42.805,6.029,13.2967,4.59967,2469.867,2019-9-08T09:46:08Z
2019-09-08T07:48:48Z,42.805,6.029,13.2961,4.59964,2469.867,2019-9-08T09:49:11Z
2019-09-08T07:51:52Z,42.805,6.029,13.2961,4.59970,2469.89,2019-9-08T09:52:14Z
2019-09-08T07:54:55Z,42.805,6.029,13.2962,4.59964,2469.89,2019-9-08T09:55:17Z
2019-09-08T07:57:58Z,42.805,6.029,13.2964,4.59958,2469.853,2019-9-08T09:58:20Z
2019-09-08T08:01:01Z,42.805,6.029,13.2961,4.59961,2469.876,2019-9-08T10:01:24Z
2019-09-08T08:04:04Z,42.805,6.029,13.2960,4.59969,2469.876,2019-9-08T10:04:27Z
2019-09-08T08:07:08Z,42.805,6.029,13.2958,4.59961,2469.89,2019-9-08T10:07:30Z
2019-09-08T08:10:11Z,42.805,6.029,13.2964,4.59964,2469.83,2019-9-08T10:10:33Z
2019-09-08T08:13:14Z,42.805,6.029,13.2965,4.59963,2469.89,2019-9-08T10:13:37Z
2019-09-08T08:16:17Z,42.805,6.029,13.2963,4.59972,2469.853,2019-9-08T10:16:40Z
2019-09-08T08:19:20Z,42.805,6.029,13.2961,4.59966,2469.876,2019-9-08T10:19:43Z
2019-09-08T08:22:24Z,42.805,6.029,13.2965,4.59968,2469.89,2019-9-08T10:22:46Z
2019-09-08T08:25:27Z,42.805,6.029,13.2965,4.59972,2469.9,2019-9-08T10:25:49Z
2019-09-08T08:28:30Z,42.805,6.029,13.2958,4.59966,2469.89,2019-9-08T10:28:53Z
2019-09-08T08:31:33Z,42.805,6.029,13.2964,4.59971,2469.876,2019-9-08T10:31:56Z
2019-09-08T08:34:36Z,42.805,6.029,13.2962,4.59963,2469.867,2019-9-08T10:34:59Z
2019-09-08T08:37:40Z,42.805,6.029,13.2967,4.59966,2469.914,2019-9-08T10:38:02Z
2019-09-08T08:40:43Z,42.805,6.029,13.2965,4.59968,2469.853,2019-9-08T10:41:05Z
2019-09-08T08:43:46Z,42.805,6.029,13.2957,4.59963,2469.876,2019-9-08T10:44:09Z
2019-09-08T08:46:49Z,42.805,6.029,13.2961,4.59961,2469.853,2019-9-08T10:47:12Z
2019-09-08T08:49:52Z,42.805,6.029,13.2959,4.59968,2469.9,2019-9-08T10:50:15Z
2019-09-08T08:52:56Z,42.805,6.029,13.2957,4.59965,2469.9,2019-9-08T10:53:18Z
2019-09-08T08:55:59Z,42.805,6.029,13.2961,4.59965,2469.89,2019-9-08T10:56:22Z
2019-09-08T08:59:02Z,42.805,6.029,13.2968,4.59966,2469.83,2019-9-08T10:59:25Z
2019-09-08T09:02:06Z,42.805,6.029,13.2963,4.59961,2469.844,2019-9-08T11:02:28Z
2019-09-08T09:05:09Z,42.805,6.029,13.2961,4.59961,2469.853,2019-9-08T11:05:31Z
2019-09-08T09:08:12Z,42.805,6.029,13.2958,4.59964,2469.89,2019-9-08T11:08:34Z
2019-09-08T09:11:15Z,42.805,6.029,13.2958,4.59958,2469.876,2019-9-08T11:11:38Z
2019-09-08T09:14:18Z,42.805,6.029,13.2963,4.59960,2469.9,2019-9-08T11:14:41Z
2019-09-08T09:17:22Z,42.805,6.029,13.2959,4.59960,2469.844,2019-9-08T11:17:44Z
2019-09-08T09:20:25Z,42.805,6.029,13.2960,4.59966,2469.89,2019-9-08T11:20:47Z
2019-09-08T09:23:28Z,42.805,6.029,13.2956,4.59961,2469.867,2019-9-08T11:23:51Z
2019-09-08T09:26:31Z,42.805,6.029,13.2960,4.59964,2469.853,2019-9-08T11:26:54Z
2019-09-08T09:29:34Z,42.805,6.029,13.2962,4.59969,2469.867,2019-9-08T11:29:57Z
2019-09-08T09:32:38Z,42.805,6.029,13.2960,4.59967,2469.867,2019-9-08T11:33:00Z
2019-09-08T09:35:41Z,42.805,6.029,13.2961,4.59963,2469.876,2019-9-08T11:36:03Z
2019-09-08T09:38:44Z,42.805,6.029,13.2962,4.59964,2469.853,2019-9-08T11:39:07Z
2019-09-08T09:41:47Z,42.805,6.029,13.2959,4.59962,2469.886,2019-9-08T11:42:10Z
2019-09-08T09:44:51Z,42.805,6.029,13.2959,4.59961,2469.867,2019-9-08T11:45:13Z
2019-09-08T09:47:54Z,42.805,6.029,13.2957,4.59963,2469.844,2019-9-08T11:48:16Z
2019-09-08T09:50:57Z,42.805,6.029,13.2960,4.59968,2469.853,2019-9-08T11:51:19Z
2019-09-08T09:54:00Z,42.805,6.029,13.2961,4.59961,2469.876,2019-9-08T11:54:23Z
2019-09-08T09:57:03Z,42.805,6.029,13.2964,4.59964,2469.867,2019-9-08T11:57:26Z
2019-09-08T10:00:07Z,42.805,6.029,13.2958,4.59965,2469.853,2019-9-08T12:00:29Z
2019-09-08T10:03:10Z,42.805,6.029,13.2960,4.59966,2469.876,2019-9-08T12:03:32Z
2019-09-08T10:06:13Z,42.805,6.029,13.2961,4.59961,2469.853,2019-9-08T12:06:36Z
2019-09-08T10:09:16Z,42.805,6.029,13.2959,4.59961,2469.876,2019-9-08T12:09:39Z
2019-09-08T10:12:19Z,42.805,6.029,13.2960,4.59966,2469.867,2019-9-08T12:12:42Z
2019-09-08T10:15:23Z,42.805,6.029,13.2958,4.59967,2469.9,2019-9-08T12:15:45Z
2019-09-08T10:18:26Z,42.805,6.029,13.2957,4.59968,2469.876,2019-9-08T12:18:48Z
2019-09-08T10:21:29Z,42.805,6.029,13.2961,4.59965,2469.876,2019-9-08T12:21:52Z
2019-09-08T10:24:32Z,42.805,6.029,13.2965,4.59961,2469.853,2019-9-08T12:24:55Z
2019-09-08T10:27:35Z,42.805,6.029,13.2961,4.59967,2469.9,2019-9-08T12:27:58Z
2019-09-08T10:30:39Z,42.805,6.029,13.2962,4.59964,2469.853,2019-9-08T12:31:01Z
2019-09-08T10:33:42Z,42.805,6.029,13.2961,4.59969,2469.9,2019-9-08T12:34:04Z
2019-09-08T10:36:45Z,42.805,6.029,13.2965,4.59967,2469.853,2019-9-08T12:37:07Z
2019-09-08T10:39:48Z,42.805,6.029,13.2961,4.59966,2469.876,2019-9-08T12:40:11Z
2019-09-08T10:42:51Z,42.805,6.029,13.2962,4.59966,2469.89,2019-9-08T12:43:14Z
2019-09-08T10:45:55Z,42.805,6.029,13.2961,4.59963,2469.89,2019-9-08T12:46:17Z
2019-09-08T10:48:58Z,42.805,6.029,13.2962,4.59964,2469.876,2019-9-08T12:49:20Z
2019-09-08T10:52:01Z,42.805,6.029,13.2958,4.59966,2469.876,2019-9-08T12:52:24Z
2019-09-08T10:55:04Z,42.805,6.029,13.2962,4.59966,2469.9,2019-9-08T12:55:27Z
2019-09-08T10:58:08Z,42.805,6.029,13.2962,4.59964,2469.89,2019-9-08T12:58:30Z
2019-09-08T11:01:11Z,42.805,6.029,13.2959,4.59962,2469.876,2019-9-08T13:01:34Z
2019-09-08T11:04:14Z,42.805,6.029,13.2959,4.59957,2469.876,2019-9-08T13:04:37Z
2019-09-08T11:07:18Z,42.805,6.029,13.2958,4.59965,2469.9,2019-9-08T13:07:40Z
2019-09-08T11:10:21Z,42.805,6.029,13.2957,4.59967,2469.9,2019-9-08T13:10:43Z
2019-09-08T11:13:24Z,42.805,6.029,13.2957,4.59957,2469.853,2019-9-08T13:13:46Z
2019-09-08T11:16:27Z,42.805,6.029,13.2960,4.59963,2469.89,2019-9-08T13:16:50Z
2019-09-08T11:19:30Z,42.805,6.029,13.2965,4.59968,2469.89,2019-9-08T13:19:53Z
2019-09-08T11:22:33Z,42.805,6.029,13.2967,4.59969,2469.9,2019-9-08T13:22:56Z
2019-09-08T11:25:37Z,42.805,6.029,13.2961,4.59966,2469.9,2019-9-08T13:26:00Z
2019-09-08T11:28:40Z,42.805,6.029,13.2965,4.59963,2469.886,2019-9-08T13:29:03Z
2019-09-08T11:31:43Z,42.805,6.029,13.2958,4.59961,2469.9,2019-9-08T13:32:06Z
2019-09-08T11:34:47Z,42.805,6.029,13.2964,4.59967,2469.914,2019-9-08T13:35:09Z
2019-09-08T11:37:50Z,42.805,6.029,13.2962,4.59962,2469.9,2019-9-08T13:38:12Z
2019-09-08T11:40:53Z,42.805,6.029,13.2964,4.59962,2469.9,2019-9-08T13:41:16Z
2019-09-08T11:43:56Z,42.805,6.029,13.2964,4.59961,2469.914,2019-9-08T13:44:19Z
2019-09-08T11:47:00Z,42.805,6.029,13.2960,4.59960,2469.9,2019-9-08T13:47:22Z
2019-09-08T11:50:03Z,42.805,6.029,13.2957,4.59959,2469.923,2019-9-08T13:50:25Z
2019-09-08T11:53:06Z,42.805,6.029,13.2960,4.59963,2469.914,2019-9-08T13:53:29Z
2019-09-08T11:56:09Z,42.805,6.029,13.2963,4.59966,2469.914,2019-9-08T13:56:32Z
2019-09-08T11:59:12Z,42.805,6.029,13.2964,4.59964,2469.923,2019-9-08T13:59:35Z
2019-09-08T12:02:16Z,42.805,6.029,13.2960,4.59960,2469.9,2019-9-08T14:02:38Z
2019-09-08T12:05:19Z,42.805,6.029,13.2957,4.59961,2469.914,2019-9-08T14:05:41Z
2019-09-08T12:08:22Z,42.805,6.029,13.2961,4.59961,2469.914,2019-9-08T14:08:45Z
2019-09-08T12:11:25Z,42.805,6.029,13.2961,4.59957,2469.923,2019-9-08T14:11:48Z
2019-09-08T12:14:28Z,42.805,6.029,13.2964,4.59958,2469.937,2019-9-08T14:14:51Z
2019-09-08T12:17:32Z,42.805,6.029,13.2959,4.59961,2469.937,2019-9-08T14:17:54Z
2019-09-08T12:20:35Z,42.805,6.029,13.2961,4.59961,2469.923,2019-9-08T14:20:57Z
2019-09-08T12:23:38Z,42.805,6.029,13.2958,4.59962,2469.9,2019-9-08T14:24:01Z
2019-09-08T12:26:41Z,42.805,6.029,13.2964,4.59961,2469.937,2019-9-08T14:27:04Z
2019-09-08T12:29:44Z,42.805,6.029,13.2961,4.59960,2469.937,2019-9-08T14:30:07Z
2019-09-08T12:32:48Z,42.805,6.029,13.2954,4.59961,2469.923,2019-9-08T14:33:10Z
2019-09-08T12:35:51Z,42.805,6.029,13.2961,4.59970,2469.923,2019-9-08T14:36:13Z
2019-09-08T12:38:54Z,42.805,6.029,13.2957,4.59961,2469.923,2019-9-08T14:39:17Z
2019-09-08T12:41:57Z,42.805,6.029,13.2955,4.59957,2469.947,2019-9-08T14:42:20Z
2019-09-08T12:45:00Z,42.805,6.029,13.2961,4.59961,2469.9,2019-9-08T14:45:23Z
2019-09-08T12:48:04Z,42.805,6.029,13.2958,4.59972,2469.96,2019-9-08T14:48:26Z
2019-09-08T12:51:07Z,42.805,6.029,13.2957,4.59964,2469.923,2019-9-08T14:51:29Z
2019-09-08T12:54:10Z,42.805,6.029,13.2961,4.59967,2469.96,2019-9-08T14:54:33Z
2019-09-08T12:57:13Z,42.805,6.029,13.2963,4.59963,2469.96,2019-9-08T14:57:36Z
2019-09-08T13:00:16Z,42.805,6.029,13.2961,4.59964,2469.937,2019-9-08T15:00:39Z
2019-09-08T13:03:20Z,42.805,6.029,13.2961,4.59965,2469.947,2019-9-08T15:03:42Z
2019-09-08T13:06:23Z,42.805,6.029,13.2967,4.59966,2469.97,2019-9-08T15:06:45Z
2019-09-08T13:09:26Z,42.805,6.029,13.2957,4.59966,2469.97,2019-9-08T15:09:49Z
2019-09-08T13:12:29Z,42.805,6.029,13.2961,4.59961,2469.947,2019-9-08T15:12:52Z
2019-09-08T13:15:32Z,42.805,6.029,13.2963,4.59961,2469.96,2019-9-08T15:15:55Z
2019-09-08T13:18:36Z,42.805,6.029,13.2960,4.59964,2469.947,2019-9-08T15:18:58Z
2019-09-08T13:21:39Z,42.805,6.029,13.2961,4.59961,2469.947,2019-9-08T15:22:01Z
2019-09-08T13:24:42Z,42.805,6.029,13.2959,4.59959,2469.96,2019-9-08T15:25:05Z
2019-09-08T13:27:45Z,42.805,6.029,13.2964,4.59967,2469.956,2019-9-08T15:28:08Z
2019-09-08T13:30:48Z,42.805,6.029,13.2959,4.59963,2469.96,2019-9-08T15:31:11Z
2019-09-08T13:33:52Z,42.805,6.029,13.2962,4.59967,2469.97,2019-9-08T15:34:14Z
2019-09-08T13:36:55Z,42.805,6.029,13.2961,4.59967,2469.96,2019-9-08T15:37:17Z
2019-09-08T13:39:58Z,42.805,6.029,13.2959,4.59960,2469.97,2019-9-08T15:40:21Z
2019-09-08T13:43:01Z,42.805,6.029,13.2962,4.59963,2469.984,2019-9-08T15:43:24Z
2019-09-08T13:46:05Z,42.805,6.029,13.2964,4.59958,2469.97,2019-9-08T15:46:27Z
2019-09-08T13:49:08Z,42.805,6.029,13.2960,4.59958,2469.909,2019-9-08T15:49:30Z
2019-09-08T13:52:11Z,42.805,6.029,13.2959,4.59964,2469.937,2019-9-08T15:52:33Z
2019-09-08T13:55:14Z,42.805,6.029,13.2960,4.59963,2469.984,2019-9-08T15:55:37Z
2019-09-08T13:58:17Z,42.805,6.029,13.2958,4.59966,2469.96,2019-9-08T15:58:40Z
2019-09-08T14:01:21Z,42.805,6.029,13.2961,4.59963,2469.97,2019-9-08T16:01:43Z
2019-09-08T14:04:24Z,42.805,6.029,13.2959,4.59963,2469.984,2019-9-08T16:04:46Z
2019-09-08T14:07:27Z,42.805,6.029,13.2962,4.59964,2469.937,2019-9-08T16:07:49Z
2019-09-08T14:10:30Z,42.805,6.029,13.2961,4.59960,2469.947,2019-9-08T16:10:53Z
2019-09-08T14:13:33Z,42.805,6.029,13.2962,4.59966,2469.993,2019-9-08T16:13:56Z
2019-09-08T14:16:36Z,42.805,6.029,13.2957,4.59960,2470.03,2019-9-08T16:16:59Z
2019-09-08T14:19:40Z,42.805,6.029,13.2961,4.59964,2469.97,2019-9-08T16:20:02Z
2019-09-08T14:22:43Z,42.805,6.029,13.2959,4.59967,2469.96,2019-9-08T16:23:05Z
2019-09-08T14:25:46Z,42.805,6.029,13.2963,4.59963,2469.984,2019-9-08T16:26:09Z
2019-09-08T14:28:49Z,42.805,6.029,13.2957,4.59958,2469.993,2019-9-08T16:29:12Z
2019-09-08T14:31:53Z,42.805,6.029,13.2959,4.59958,2469.993,2019-9-08T16:32:15Z
2019-09-08T14:34:56Z,42.805,6.029,13.2963,4.59964,2469.984,2019-9-08T16:35:18Z
2019-09-08T14:37:59Z,42.805,6.029,13.2957,4.59958,2469.984,2019-9-08T16:38:21Z
2019-09-08T14:41:02Z,42.805,6.029,13.2963,4.59968,2469.97,2019-9-08T16:41:25Z
2019-09-08T14:44:05Z,42.805,6.029,13.2961,4.59964,2469.993,2019-9-08T16:44:28Z
2019-09-08T14:47:09Z,42.805,6.029,13.2964,4.59961,2469.97,2019-9-08T16:47:31Z
2019-09-08T14:50:12Z,42.805,6.029,13.2961,4.59966,2469.97,2019-9-08T16:50:34Z
2019-09-08T14:53:15Z,42.805,6.029,13.2959,4.59957,2469.993,2019-9-08T16:53:38Z
2019-09-08T14:56:19Z,42.805,6.029,13.2958,4.59964,2469.993,2019-9-08T16:56:41Z
2019-09-08T14:59:22Z,42.805,6.029,13.2958,4.59964,2469.984,2019-9-08T16:59:44Z
2019-09-08T15:02:25Z,42.805,6.029,13.2957,4.59960,2470.03,2019-9-08T17:02:47Z
2019-09-08T15:05:28Z,42.805,6.029,13.2960,4.59961,2469.993,2019-9-08T17:05:51Z
2019-09-08T15:08:31Z,42.805,6.029,13.2962,4.59960,2470.017,2019-9-08T17:08:54Z
2019-09-08T15:11:35Z,42.805,6.029,13.2958,4.59961,2470.007,2019-9-08T17:11:57Z
2019-09-08T15:14:38Z,42.805,6.029,13.2961,4.59965,2469.97,2019-9-08T17:15:00Z